Flag for Germany Weather past 2 weeks in Bergisch Gladbach, North Rhine-Westphalia, Germany

Now
77 °F

Sunny.


Feels Like: 78 °F
Forecast: 65 / 88 °F
Wind: 3 mph from Northeast

Location: Koeln / Bonn

Current Time: Jun 30, 2015 at 9:56:51 PM

Latest Report: Jun 30, 2015 at 9:20 PM


Visibility: 10 mi

Pressure: 30.09 "Hg

Humidity: 44%

Dew point: 54 °F

Location of Bergisch GladbachLocation

Historic Weather in Bergisch Gladbach — Graph

°F

Bergisch Gladbach temperature yesterday

Maximum temperature yesterday: 79 °F (at 3:50 PM)
Minimum temperature yesterday: 61 °F (at 6:20 AM)
Average temperature yesterday: 71 °F

Past Weeks' High & Low Weather Summary

 TemperatureHumidityPressure
High84 °F (Jun 30, 4:20 PM)94% (Jun 18, 3:50 AM)30.30 "Hg (Jun 18, 3:50 AM)
Low39 °F (Jun 17, 6:20 AM)17% (Jun 30, 3:50 PM)29.68 "Hg (Jun 22, 9:20 PM)
Average61 °F68%30.09 "Hg
* Reported Jun 15 8:20 PM — Jun 30 8:20 PM, Bergisch Gladbach, Weather by CustomWeather, © 2015

Note: Actual official high and low records may vary slightly from our data, if they occured in-between our weather recording intervals... More about our weather records

Advertising

Bergisch Gladbach weather history for previous 24 hours

 ConditionsComfort  
Time TempWeatherWind HumidityBarometerVisibility
8:20 PM
Tue, Jun 30
82 °FSunny.2 mph28%30.09 "Hg10 mi
7:50 PM82 °FSunny.2 mph26%30.09 "Hg10 mi
6:50 PM84 °FSunny.5 mph25%30.09 "Hg10 mi
6:20 PM84 °FSunny.5 mph25%30.09 "Hg10 mi
5:50 PM84 °FSunny.5 mph22%30.09 "Hg10 mi
4:50 PM84 °FSunny.3 mph22%30.12 "Hg10 mi
4:20 PM84 °FPassing clouds.5 mph20%30.12 "HgN/A
3:50 PM82 °FPassing clouds.5 mph17%30.12 "HgN/A
2:50 PM81 °FSunny.3 mph21%30.15 "Hg10 mi
2:20 PM81 °FPassing clouds.5 mph26%30.15 "HgN/A
1:50 PM79 °FPassing clouds.5 mph26%30.15 "HgN/A
1:20 PM79 °FSunny.3 mph26%30.15 "Hg10 mi
12:50 PM79 °FSunny.6 mph26%30.15 "Hg10 mi
12:20 PM77 °FSunny.2 mph36%30.18 "Hg10 mi
11:50 AM77 °FSunny.2 mph36%30.18 "Hg10 mi
11:20 AM75 °FSunny.2 mph44%30.18 "Hg10 mi
10:50 AM73 °FPassing clouds.2 mph50%30.18 "HgN/A
10:20 AM72 °FPassing clouds.2 mph57%30.18 "HgN/A
9:50 AM70 °FPassing clouds.1 mph60%30.21 "HgN/A
9:20 AM66 °FSunny.2 mph68%30.18 "Hg10 mi
8:50 AM64 °FSunny.3 mph73%30.21 "Hg10 mi
8:20 AM63 °FSunny.3 mph77%30.18 "Hg10 mi
7:50 AM61 °FSunny.3 mph83%30.21 "Hg10 mi
7:20 AM57 °FSunny.2 mph94%30.18 "Hg10 mi
6:50 AM54 °FSunny.1 mph94%30.18 "Hg10 mi
6:20 AM52 °FSunny.2 mph94%30.18 "Hg10 mi
5:50 AM54 °FFog.6 mph88%30.18 "HgN/A
5:20 AM54 °FFog.5 mph88%30.18 "HgN/A
4:50 AM55 °FFog.5 mph88%30.18 "HgN/A
4:20 AM55 °FFog.3 mph88%30.18 "HgN/A
3:50 AM55 °FFog.6 mph88%30.18 "HgN/A
3:20 AM55 °FFog.5 mph94%30.18 "HgN/A
2:50 AM57 °FClear.5 mph88%30.18 "Hg10 mi
2:20 AM57 °FClear.5 mph88%30.18 "Hg10 mi
1:50 AM59 °FClear.5 mph82%30.18 "Hg10 mi
1:20 AM59 °FClear.5 mph88%30.18 "Hg10 mi
12:50 AM61 °FClear.5 mph77%30.18 "Hg10 mi
12:20 AM61 °FClear.3 mph83%30.18 "Hg10 mi
11:20 PM
Mon, Jun 29
66 °FClear.1 mph68%30.18 "Hg10 mi
10:50 PM68 °FClear.1 mph60%30.18 "Hg10 mi
10:20 PM68 °FSunny.2 mph60%30.18 "Hg10 mi
9:50 PM70 °FSunny.3 mph57%30.18 "Hg10 mi
9:20 PM70 °FSunny.6 mph53%30.18 "Hg10 mi
Weather by CustomWeather, © 2015

See weather overviewHow to use our weather pages